EN

Hourly Weather Tatabanya

Today, 12 June, Saturday

Time Temperature Precipitation Wind Pressure Humidity
00:00 +15°C° 0 mm 2 mps 741 mmHg 87%
01:00 +15°C° 0 mm 2 mps 741 mmHg 90%
02:00 +15°C° 0 mm 2 mps 741 mmHg 90%
03:00 +14°C° 0 mm 2 mps 741 mmHg 91%
04:00 +14°C° 0 mm 2 mps 741 mmHg 92%
05:00 +16°C° 0 mm 2 mps 741 mmHg 86%
06:00 +17°C° 0 mm 2 mps 741 mmHg 80%
07:00 +19°C° 0 mm 2 mps 741 mmHg 73%
08:00 +21°C° 0 mm 2 mps 741 mmHg 67%
09:00 +22°C° 0 mm 3 mps 741 mmHg 61%
10:00 +25°C° 0 mm 3 mps 741 mmHg 54%
11:00 +26°C° 0 mm 3 mps 741 mmHg 52%
12:00 +27°C° 0 mm 3 mps 741 mmHg 49%
13:00 +27°C° 0 mm 3 mps 741 mmHg 46%
14:00 +27°C° 0 mm 4 mps 740 mmHg 47%
15:00 +27°C° 0 mm 4 mps 740 mmHg 48%
16:00 +27°C° 0 mm 4 mps 740 mmHg 49%
17:00 +26°C° 0 mm 4 mps 740 mmHg 56%
18:00 +24°C° 0 mm 3 mps 739 mmHg 62%
19:00 +22°C° 0 mm 3 mps 739 mmHg 68%
20:00 +21°C° 0.3 mm 4 mps 739 mmHg 73%
21:00 +20°C° 0.3 mm 4 mps 740 mmHg 77%
22:00 +19°C° 0.3 mm 4 mps 740 mmHg 81%
23:00 +19°C° 0.1 mm 5 mps 740 mmHg 82%

Tomorrow, 13 June, Sunday

Time Temperature Precipitation Wind Pressure Humidity
00:00 +17°C° 0.1 mm 6 mps 740 mmHg 83%
01:00 +17°C° 0.1 mm 7 mps 740 mmHg 84%
02:00 +16°C° 0 mm 7 mps 740 mmHg 84%
03:00 +15°C° 0 mm 7 mps 741 mmHg 83%
04:00 +14°C° 0 mm 7 mps 741 mmHg 82%
05:00 +15°C° 0 mm 7 mps 741 mmHg 79%
06:00 +15°C° 0 mm 7 mps 742 mmHg 75%
07:00 +15°C° 0 mm 7 mps 743 mmHg 72%
08:00 +16°C° 0 mm 8 mps 743 mmHg 66%
09:00 +17°C° 0 mm 8 mps 743 mmHg 60%
10:00 +18°C° 0 mm 8 mps 744 mmHg 54%
11:00 +18°C° 0 mm 8 mps 744 mmHg 51%
12:00 +20°C° 0 mm 8 mps 744 mmHg 47%
13:00 +20°C° 0 mm 8 mps 744 mmHg 43%
14:00 +20°C° 0 mm 8 mps 744 mmHg 45%
15:00 +20°C° 0 mm 8 mps 744 mmHg 46%
16:00 +20°C° 0 mm 7 mps 744 mmHg 48%
17:00 +18°C° 0 mm 7 mps 744 mmHg 52%
18:00 +17°C° 0 mm 6 mps 744 mmHg 56%
19:00 +15°C° 0 mm 6 mps 744 mmHg 60%
20:00 +14°C° 0 mm 5 mps 745 mmHg 63%
21:00 +13°C° 0 mm 5 mps 745 mmHg 65%
22:00 +12°C° 0 mm 4 mps 745 mmHg 67%
23:00 +11°C° 0 mm 4 mps 745 mmHg 70%

Day after tomorrow, 14 June, Monday

Time Temperature Precipitation Wind Pressure Humidity
00:00 +10°C° 0 mm 3 mps 745 mmHg 72%
01:00 +9°C° 0 mm 3 mps 745 mmHg 75%
02:00 +8°C° 0 mm 3 mps 745 mmHg 79%
03:00 +8°C° 0 mm 2 mps 745 mmHg 83%
04:00 +7°C° 0 mm 2 mps 745 mmHg 87%
05:00 +9°C° 0 mm 2 mps 746 mmHg 81%
06:00 +11°C° 0 mm 3 mps 746 mmHg 74%
07:00 +12°C° 0 mm 3 mps 746 mmHg 68%
08:00 +14°C° 0 mm 3 mps 746 mmHg 62%
09:00 +17°C° 0 mm 3 mps 746 mmHg 56%
10:00 +18°C° 0 mm 3 mps 746 mmHg 51%
11:00 +19°C° 0 mm 3 mps 745 mmHg 48%
12:00 +20°C° 0 mm 3 mps 745 mmHg 46%
13:00 +21°C° 0 mm 3 mps 745 mmHg 44%
14:00 +21°C° 0 mm 3 mps 744 mmHg 44%
15:00 +22°C° 0 mm 3 mps 744 mmHg 43%
16:00 +22°C° 0 mm 3 mps 743 mmHg 43%
17:00 +20°C° 0 mm 2 mps 743 mmHg 50%
18:00 +19°C° 0 mm 2 mps 743 mmHg 58%
19:00 +18°C° 0 mm 2 mps 743 mmHg 65%
20:00 +17°C° 0 mm 2 mps 743 mmHg 68%
21:00 +15°C° 0 mm 1 mps 743 mmHg 70%
22:00 +14°C° 0 mm 1 mps 743 mmHg 72%
23:00 +13°C° 0 mm 1 mps 744 mmHg 75%

15 June, Tuesday

Time Temperature Precipitation Wind Pressure Humidity
00:00 +13°C° 0 mm 1 mps 744 mmHg 77%
01:00 +12°C° 0 mm 1 mps 744 mmHg 80%
02:00 +12°C° 0 mm 1 mps 744 mmHg 80%
03:00 +12°C° 0 mm 1 mps 744 mmHg 81%
04:00 +11°C° 0 mm 1 mps 744 mmHg 81%
05:00 +13°C° 0 mm 1 mps 744 mmHg 74%
06:00 +15°C° 0 mm 1 mps 745 mmHg 68%
07:00 +18°C° 0 mm 1 mps 745 mmHg 62%
08:00 +19°C° 0 mm 1 mps 745 mmHg 57%
09:00 +21°C° 0 mm 1 mps 745 mmHg 52%
10:00 +23°C° 0 mm 1 mps 745 mmHg 48%
11:00 +23°C° 0 mm 1 mps 745 mmHg 46%
12:00 +24°C° 0 mm 1 mps 745 mmHg 45%
13:00 +25°C° 0 mm 1 mps 744 mmHg 43%
14:00 +25°C° 0 mm 1 mps 744 mmHg 43%
15:00 +25°C° 0 mm 1 mps 744 mmHg 42%
16:00 +25°C° 0 mm 1 mps 744 mmHg 42%
17:00 +24°C° 0 mm 1 mps 744 mmHg 49%
18:00 +22°C° 0 mm 1 mps 743 mmHg 55%
19:00 +21°C° 0 mm 1 mps 743 mmHg 61%
20:00 +20°C° 0 mm 1 mps 743 mmHg 62%
21:00 +17°C° 0 mm 0 mps 743 mmHg 64%
22:00 +16°C° 0 mm 0 mps 744 mmHg 65%
23:00 +15°C° 0 mm 0 mps 744 mmHg 67%

16 June, Wednesday

Time Temperature Precipitation Wind Pressure Humidity
00:00 +15°C° 0 mm 0 mps 743 mmHg 68%
01:00 +16°C° 0 mm 1 mps 743 mmHg 69%
02:00 +14°C° 0 mm 0 mps 743 mmHg 70%
03:00 +14°C° 0 mm 0 mps 743 mmHg 72%
04:00 +14°C° 0 mm 0 mps 743 mmHg 73%
05:00 +15°C° 0 mm 0 mps 743 mmHg 69%
06:00 +19°C° 0 mm 1 mps 743 mmHg 66%
07:00 +20°C° 0 mm 1 mps 744 mmHg 62%
08:00 +20°C° 0 mm 0 mps 744 mmHg 57%
09:00 +22°C° 0 mm 0 mps 744 mmHg 52%
10:00 +23°C° 0 mm 0 mps 744 mmHg 46%
11:00 +24°C° 0 mm 0 mps 744 mmHg 44%
12:00 +25°C° 0 mm 0 mps 744 mmHg 42%
13:00 +26°C° 0 mm 0 mps 743 mmHg 40%
14:00 +28°C° 0 mm 1 mps 743 mmHg 40%
15:00 +28°C° 0 mm 1 mps 743 mmHg 40%
16:00 +28°C° 0 mm 1 mps 743 mmHg 40%
17:00 +26°C° 0 mm 1 mps 743 mmHg 48%
18:00 +25°C° 0 mm 2 mps 743 mmHg 56%
19:00 +23°C° 0 mm 2 mps 743 mmHg 63%
20:00 +22°C° 0 mm 1 mps 743 mmHg 65%
21:00 +21°C° 0 mm 1 mps 743 mmHg 66%
22:00 +20°C° 0 mm 1 mps 744 mmHg 67%
23:00 +19°C° 0 mm 1 mps 743 mmHg 68%

17 June, Thursday

Time Temperature Precipitation Wind Pressure Humidity
00:00 +19°C° 0 mm 1 mps 743 mmHg 69%
01:00 +18°C° 0 mm 1 mps 743 mmHg 69%
02:00 +18°C° 0 mm 1 mps 743 mmHg 71%
03:00 +18°C° 0 mm 1 mps 743 mmHg 72%
04:00 +16°C° 0 mm 1 mps 743 mmHg 74%
05:00 +19°C° 0 mm 1 mps 744 mmHg 70%
06:00 +21°C° 0 mm 1 mps 744 mmHg 66%
07:00 +21°C° 0 mm 2 mps 744 mmHg 63%
08:00 +24°C° 0 mm 2 mps 744 mmHg 58%
09:00 +25°C° 0 mm 2 mps 744 mmHg 54%
10:00 +27°C° 0 mm 3 mps 745 mmHg 49%
11:00 +27°C° 0 mm 3 mps 744 mmHg 46%
12:00 +28°C° 0 mm 3 mps 744 mmHg 43%
13:00 +29°C° 0 mm 3 mps 744 mmHg 40%
14:00 +29°C° 0 mm 3 mps 744 mmHg 40%
15:00 +29°C° 0 mm 3 mps 744 mmHg 40%
16:00 +29°C° 0 mm 3 mps 744 mmHg 40%
17:00 +27°C° 0 mm 3 mps 743 mmHg 47%
18:00 +26°C° 0 mm 2 mps 743 mmHg 53%
19:00 +24°C° 0 mm 2 mps 743 mmHg 60%
20:00 +23°C° 0 mm 2 mps 743 mmHg 61%
21:00 +21°C° 0 mm 2 mps 744 mmHg 62%
22:00 +20°C° 0 mm 2 mps 744 mmHg 62%
23:00 +19°C° 0 mm 2 mps 744 mmHg 64%
Show more